RSW-01 (49112 NORAD) Tracking and Keplerian Element Data

This shows tracking and keplerian element data for the satellite.

Feedback or suggestion? Click here.




ElementValue
Catalog49112
NameRSW-01
Epoch Orbit864
Epoch Day300.89434418
Epoch Year2021
RAAN42.8912
Inclination86.412
Eccentricity0.001721
Argument of Perigee121.1699
Mean Anonmoly239.1135
Mean Motion13.42700233
Decay Rate4.9E-07
L11 49112U 21076A 21300.89434418 .00000049 00000-0 59335-4 0 9992
L22 49112 86.4120 42.8912 0017210 121.1699 239.1135 13.42700233 8643

Live tracking and technical data element details for RSW-01 (NORAD 49112). RSW-01 can be tracked NOW for your location showing map with azimuth and elevation plus other details from your city location.

Track the satellite on the map from your city or location and see movement details for azimuth, elevation, latitude, longitude, range, height, and movement on the map or in text.







IsCatalogInMostPopularTable: catalog: 49112, numindb: 13
Update: records affected: 1



GetName: 49112 RSW-01

Hit Count: updated at: Thu, 28 Oct 2021 12:28:34 GMT